K5BOU Weather Reports


Display with metric or nautical units.
time (UTC)temp
F
wind
direction
speed
MPH
gust
MPH
rain 1hr
in
rain 24hr
in
rain mn
in
humidity
%
barometer
mb
20260508153252 68 164 0.0 1.0 0.00 0.01 0.01 99 1010.9
20260508152748 68 147 0.0 2.0 0.00 0.01 0.01 99 1011.0
20260508152244 68 150 0.0 2.0 0.00 0.01 0.01 99 1010.5
20260508151740 68 31 2.0 5.0 0.00 0.01 0.01 99 1010.6
20260508151237 68 41 3.0 3.0 0.00 0.01 0.01 99 1010.5
20260508150734 68 136 0.0 1.0 0.00 0.01 0.01 99 1010.6
20260508150231 68 125 1.0 3.0 0.07 0.01 0.01 99 1010.6
20260508145726 68 168 0.0 1.0 0.00 0.00 0.00 99 1010.9
20260508145223 68 99 1.0 2.0 0.00 0.00 0.00 99 1010.7
20260508144720 68 175 0.0 2.0 0.00 0.00 0.00 99 1010.8
20260508144218 68 219 2.0 2.0 0.00 0.00 0.00 99 1010.7
20260508143715 68 152 2.0 2.0 0.00 0.00 0.00 99 1010.3
20260508143212 68 178 0.0 0.0 0.00 0.00 0.00 99 1010.5
20260508142708 68 86 1.0 2.0 0.00 0.00 0.00 99 1010.3
20260508142205 68 7 0.0 1.0 0.00 0.00 0.00 99 1010.4
20260508141702 68 174 0.0 0.0 0.00 0.00 0.00 99 1010.3
20260508141159 68 125 0.0 3.0 0.00 0.00 0.00 99 1010.7
20260508140657 68 173 0.0 1.0 0.00 0.00 0.00 99 1010.9
20260508140153 68 125 0.0 1.0 0.00 0.00 0.00 99 1010.9
20260508135650 68 142 1.0 2.0 0.00 0.00 0.00 99 1010.9
20260508135145 68 125 0.0 1.0 0.00 0.00 0.00 99 1010.6
20260508134642 68 100 3.0 5.0 0.00 0.00 0.00 99 1010.7
20260508134139 68 152 2.0 3.0 0.00 0.00 0.00 99 1010.8
20260508133636 68 145 0.0 2.0 0.00 0.00 0.00 99 1010.7
20260508133133 68 100 1.0 2.0 0.00 0.00 0.00 99 1011.0
20260508132631 68 194 0.0 2.0 0.00 0.00 0.00 99 1010.9
20260508132127 68 148 0.0 0.0 0.00 0.00 0.00 99 1010.8
20260508131623 68 161 1.0 2.0 0.00 0.00 0.00 99 1010.7
20260508131120 68 71 2.0 3.0 0.00 0.00 0.00 99 1010.8
20260508130616 68 30 0.0 1.0 0.00 0.00 0.00 99 1010.9
20260508130113 68 157 1.0 2.0 0.00 0.00 0.00 99 1011.0
20260508125608 68 130 1.0 2.0 0.00 0.00 0.00 99 1011.0
20260508125106 68 165 0.0 2.0 0.00 0.00 0.00 99 1011.1
20260508124604 68 154 1.0 2.0 0.00 0.00 0.00 99 1011.0
20260508124101 68 65 2.0 3.0 0.00 0.00 0.00 99 1011.2
20260508123559 68 194 1.0 1.0 0.00 0.00 0.00 99 1011.2
20260508123056 68 187 0.0 1.0 0.00 0.00 0.00 99 1011.1
20260508122552 68 123 0.0 1.0 0.00 0.00 0.00 98 1010.7
20260508122049 68 60 0.0 2.0 0.00 0.00 0.00 98 1010.7
20260508121548 68 177 0.0 0.0 0.00 0.00 0.00 98 1010.7
20260508121045 68 145 1.0 1.0 0.00 0.00 0.00 97 1010.7
20260508120543 68 158 1.0 2.0 0.00 0.00 0.00 97 1010.9
20260508120041 68 100 1.0 3.0 0.00 0.00 0.00 97 1011.2
20260508115538 68 127 1.0 2.0 0.00 0.00 0.00 97 1011.5
20260508115034 68 142 0.0 5.0 0.00 0.00 0.00 97 1011.7
20260508114532 68 353 2.0 5.0 0.00 0.00 0.00 97 1011.6
20260508114028 68 137 1.0 6.0 0.00 0.00 0.00 96 1011.4
20260508113526 68 346 3.0 5.0 0.00 0.00 0.00 96 1010.9
20260508113023 68 133 1.0 3.0 0.00 0.00 0.00 96 1010.5
20260508112519 68 134 2.0 2.0 0.00 0.00 0.00 95 1010.4
20260508112016 68 186 0.0 2.0 0.00 0.00 0.00 95 1010.1
20260508111513 68 174 0.0 3.0 0.00 0.00 0.00 94 1010.1
20260508111010 69 121 2.0 3.0 0.00 0.00 0.00 93 1010.1
20260508110508 69 66 2.0 3.0 0.00 0.00 0.00 93 1010.5
20260508110003 69 137 1.0 2.0 0.00 0.00 0.00 92 1010.9
20260508105459 70 182 1.0 3.0 0.00 0.00 0.00 92 1010.9
20260508104956 70 23 0.0 1.0 0.00 0.00 0.00 92 1010.8
20260508104454 70 162 0.0 0.0 0.00 0.00 0.00 92 1010.7
20260508103950 70 40 2.0 2.0 0.00 0.00 0.00 92 1010.7
20260508103447 70 176 0.0 3.0 0.00 0.00 0.00 91 1010.4
20260508102944 70 151 0.0 1.0 0.00 0.00 0.00 91 1010.7
20260508102442 70 169 0.0 5.0 0.00 0.00 0.00 91 1010.6
20260508101939 70 31 1.0 2.0 0.00 0.00 0.00 90 1010.4
20260508101437 70 161 0.0 1.0 0.00 0.00 0.00 90 1010.4
20260508100934 71 144 1.0 3.0 0.00 0.00 0.00 89 1010.4
20260508100432 71 312 1.0 3.0 0.00 0.00 0.00 89 1010.8
20260508095928 71 92 1.0 2.0 0.00 0.00 0.00 89 1010.6
20260508095426 71 184 0.0 2.0 0.00 0.00 0.00 89 1010.6
20260508094922 71 216 0.0 1.0 0.00 0.00 0.00 89 1010.6
20260508094419 71 94 0.0 2.0 0.00 0.00 0.00 89 1010.4
20260508093916 71 25 0.0 2.0 0.00 0.00 0.00 89 1010.3
20260508093414 71 181 0.0 1.0 0.00 0.00 0.00 88 1010.0
20260508092911 71 194 1.0 2.0 0.00 0.00 0.00 88 1009.7
20260508092409 71 119 0.0 2.0 0.00 0.00 0.00 88 1009.8
20260508091907 71 169 0.0 1.0 0.00 0.00 0.00 88 1010.1
20260508091403 71 96 0.0 1.0 0.00 0.00 0.00 88 1010.6
20260508090901 71 9 0.0 1.0 0.00 0.00 0.00 88 1010.5
20260508090400 71 186 1.0 3.0 0.00 0.00 0.00 88 1010.2
20260508085855 71 157 1.0 2.0 0.00 0.00 0.00 88 1010.4
20260508085352 71 162 0.0 3.0 0.00 0.00 0.00 88 1010.4
20260508084848 71 169 0.0 2.0 0.00 0.00 0.00 88 1010.4
20260508084345 71 103 0.0 1.0 0.00 0.00 0.00 88 1010.6
20260508083843 71 171 0.0 2.0 0.00 0.00 0.00 87 1010.4
20260508083340 71 37 1.0 3.0 0.00 0.00 0.00 87 1010.5
20260508082839 71 176 0.0 0.0 0.00 0.00 0.00 87 1010.6
20260508082338 71 38 1.0 3.0 0.00 0.00 0.00 87 1010.5
20260508081835 71 136 0.0 2.0 0.00 0.00 0.00 87 1010.6
20260508081331 71 166 0.0 1.0 0.00 0.00 0.00 87 1010.5
20260508080828 71 177 0.0 1.0 0.00 0.00 0.00 87 1010.7
20260508080326 71 35 1.0 2.0 0.00 0.00 0.00 88 1010.6
20260508075823 71 173 0.0 0.0 0.00 0.00 0.00 88 1010.6
20260508075319 71 192 0.0 1.0 0.00 0.00 0.00 88 1010.5
20260508074818 71 176 0.0 1.0 0.00 0.00 0.00 88 1010.5
20260508074314 71 181 0.0 2.0 0.00 0.00 0.00 88 1010.9
20260508073811 71 185 0.0 1.0 0.00 0.00 0.00 88 1010.8
20260508073309 71 190 0.0 1.0 0.00 0.00 0.00 88 1010.9
20260508072805 71 188 0.0 1.0 0.00 0.00 0.00 88 1011.1
20260508072306 71 179 0.0 1.0 0.00 0.00 0.00 88 1011.0
20260508071800 71 194 1.0 1.0 0.00 0.00 0.00 88 1011.0
20260508071258 71 186 0.0 2.0 0.00 0.00 0.00 87 1010.9
20260508070755 71 178 0.0 0.0 0.00 0.00 0.00 86 1010.8
20260508070254 71 167 0.0 0.0 0.00 0.00 0.00 86 1010.9
20260508065750 71 180 0.0 0.0 0.00 0.00 0.00 87 1010.9
20260508065248 71 190 0.0 1.0 0.00 0.00 0.00 87 1011.3
20260508064746 72 192 0.0 1.0 0.00 0.00 0.00 86 1011.3
20260508064244 72 188 0.0 1.0 0.00 0.00 0.00 86 1011.1
20260508063741 72 191 0.0 1.0 0.00 0.00 0.00 85 1011.2
20260508063239 72 190 0.0 0.0 0.00 0.00 0.00 85 1011.2
20260508062735 72 190 1.0 1.0 0.00 0.00 0.00 84 1011.0
20260508062233 72 162 1.0 2.0 0.00 0.00 0.00 84 1010.9
20260508061730 72 175 0.0 1.0 0.00 0.00 0.00 84 1010.9
20260508061227 72 186 0.0 0.0 0.00 0.00 0.00 84 1010.7
20260508060724 72 173 1.0 2.0 0.00 0.00 0.00 83 1010.7
20260508060221 72 155 0.0 2.0 0.00 0.00 0.00 83 1011.1
20260508055717 72 104 0.0 2.0 0.00 0.00 0.00 83 1011.1
20260508055214 72 174 0.0 1.0 0.00 0.00 0.00 83 1011.1
20260508054710 72 143 1.0 2.0 0.00 0.00 0.00 83 1011.2
20260508054208 72 167 0.0 0.0 0.00 0.00 0.00 83 1011.0
20260508053705 72 129 0.0 2.0 0.00 0.00 0.00 83 1011.3
20260508053202 72 125 0.0 0.0 0.00 0.00 0.00 83 1011.2
20260508052659 72 169 0.0 0.0 0.00 0.00 0.00 83 1011.3
20260508052156 72 57 0.0 1.0 0.00 0.00 0.00 83 1011.3
20260508051653 72 260 0.0 2.0 0.00 0.00 0.00 83 1011.4
20260508051148 72 170 0.0 3.0 0.00 0.00 0.00 83 1011.2
20260508050644 72 168 0.0 0.0 0.00 0.00 0.00 84 1011.4
20260508050142 72 136 1.0 3.0 0.00 0.00 0.00 84 1011.1
20260508045638 73 163 0.0 1.0 0.00 0.00 0.00 84 1011.3
20260508045136 73 171 0.0 0.0 0.00 0.00 0.00 84 1011.2
20260508044633 74 182 1.0 2.0 0.00 0.00 0.00 83 1011.2
20260508044129 74 179 0.0 0.0 0.00 0.00 0.00 83 1011.1
20260508043625 74 175 0.0 0.0 0.00 0.00 0.00 83 1011.0
20260508043123 74 87 1.0 2.0 0.00 0.00 0.00 83 1010.7
20260508042620 74 114 1.0 1.0 0.00 0.00 0.00 83 1011.0
20260508042117 74 43 0.0 1.0 0.00 0.00 0.00 84 1011.2
20260508041613 74 172 0.0 1.0 0.00 0.00 0.00 84 1011.2
20260508041110 74 152 0.0 1.0 0.00 0.00 0.00 83 1011.0
20260508040606 74 86 0.0 1.0 0.00 0.00 0.00 83 1011.2
20260508040104 74 139 2.0 3.0 0.00 0.00 0.00 83 1011.1
20260508035601 74 174 0.0 1.0 0.00 0.00 0.00 83 1010.8
20260508035058 74 127 4.0 5.0 0.00 0.00 0.00 83 1010.5
20260508034555 73 164 0.0 5.0 0.00 0.00 0.00 84 1010.7
20260508034052 73 170 0.0 2.0 0.00 0.00 0.00 85 1010.5
20260508033550 73 117 0.0 1.0 0.00 0.00 0.00 84 1011.0
20260508033048 73 162 0.0 0.0 0.00 0.00 0.00 85 1011.2
20260508032544 73 177 0.0 0.0 0.00 0.00 0.00 85 1011.5
20260508032042 73 160 0.0 0.0 0.00 0.00 0.00 86 1011.8
20260508031539 73 186 0.0 1.0 0.00 0.00 0.00 86 1011.9
20260508031034 73 199 0.0 0.0 0.00 0.00 0.00 85 1011.8
20260508030531 74 160 0.0 0.0 0.00 0.00 0.00 83 1012.1
20260508030030 74 160 0.0 0.0 0.00 0.00 0.00 83 1012.0
20260508025525 74 160 0.0 0.0 0.00 0.00 0.00 83 1011.5
20260508025022 74 177 0.0 0.0 0.00 0.00 0.00 83 1011.6
20260508024518 74 186 0.0 1.0 0.00 0.00 0.00 82 1011.5
20260508024015 74 145 0.0 1.0 0.00 0.00 0.00 83 1011.5
20260508023512 74 189 0.0 1.0 0.00 0.00 0.00 82 1011.7
20260508023009 74 171 0.0 0.0 0.00 0.00 0.00 82 1011.8
20260508022505 74 107 1.0 5.0 0.00 0.00 0.00 81 1011.5
20260508022002 74 119 0.0 1.0 0.00 0.00 0.00 81 1011.2
20260508021458 74 119 0.0 1.0 0.00 0.00 0.00 81 1011.4
20260508020954 75 145 1.0 1.0 0.00 0.00 0.00 81 1011.4
20260508020452 75 145 1.0 1.0 0.00 0.00 0.00 81 1011.3
20260508015948 75 145 1.0 1.0 0.00 0.00 0.00 81 1011.3
20260508015447 75 145 1.0 1.0 0.00 0.00 0.00 81 1011.3
20260508014943 75 145 1.0 1.0 0.00 0.00 0.00 81 1011.3
20260508014440 75 192 1.0 1.0 0.00 0.00 0.00 80 1011.4
20260508013936 75 165 0.0 1.0 0.00 0.00 0.00 80 1011.0
20260508013432 75 136 0.0 2.0 0.00 0.00 0.00 79 1011.2
20260508012930 76 99 1.0 2.0 0.00 0.00 0.00 79 1011.0
20260508012426 76 183 0.0 3.0 0.00 0.00 0.00 79 1011.0
20260508011924 76 22 2.0 3.0 0.00 0.00 0.00 78 1011.2
20260508011422 76 177 2.0 3.0 0.00 0.00 0.00 78 1011.5
20260508010919 76 160 1.0 5.0 0.00 0.00 0.00 78 1011.3
20260508010416 76 10 1.0 2.0 0.00 0.00 0.00 78 1011.4
20260508005913 76 150 0.0 3.0 0.00 0.00 0.00 79 1011.3
20260508005410 76 159 0.0 2.0 0.00 0.00 0.00 79 1011.7
20260508004906 76 181 1.0 2.0 0.00 0.00 0.00 78 1011.5
20260508004402 77 163 0.0 2.0 0.00 0.00 0.00 78 1011.3
20260508003859 77 162 3.0 5.0 0.00 0.00 0.00 78 1011.1
20260508003356 77 13 1.0 6.0 0.00 0.00 0.00 79 1011.2
20260508002853 77 132 0.0 2.0 0.00 0.00 0.00 79 1011.0
20260508002349 77 135 0.0 2.0 0.00 0.00 0.00 78 1011.1
20260508001846 77 133 4.0 6.0 0.00 0.00 0.00 78 1011.2
20260508001342 77 83 0.0 1.0 0.00 0.00 0.00 78 1011.1
20260508000838 77 183 0.0 1.0 0.00 0.00 0.00 79 1011.1
20260508000335 77 115 0.0 1.0 0.00 0.00 0.00 79 1011.0
20260507235831 77 150 2.0 6.0 0.00 0.00 0.00 79 1011.3
20260507235329 77 182 0.0 3.0 0.00 0.00 0.00 80 1011.3
20260507234826 77 127 0.0 5.0 0.00 0.00 0.00 80 1011.5
20260507234322 77 277 0.0 1.0 0.00 0.00 0.00 80 1011.3
20260507233819 78 203 2.0 5.0 0.00 0.00 0.00 79 1011.3
20260507233317 79 194 0.0 1.0 0.00 0.00 0.00 78 1011.3
20260507232815 79 195 1.0 3.0 0.00 0.00 0.00 77 1011.2
20260507232311 80 79 0.0 1.0 0.00 0.00 0.00 77 1011.0
20260507231808 79 129 1.0 3.0 0.00 0.00 0.00 76 1011.1
20260507231304 79 79 4.0 7.0 0.00 0.00 0.00 76 1011.0
20260507230801 79 177 1.0 2.0 0.00 0.00 0.00 77 1010.9
20260507230258 79 173 0.0 1.0 0.00 0.00 0.00 77 1010.9
20260507225758 79 135 1.0 3.0 0.00 0.00 0.00 77 1011.1
20260507225254 79 135 1.0 3.0 0.00 0.00 0.00 77 1010.8
20260507224750 80 125 1.0 2.0 0.00 0.00 0.00 76 1010.8
20260507224247 79 165 1.0 3.0 0.00 0.00 0.00 77 1010.9
20260507223743 79 176 0.0 6.0 0.00 0.00 0.00 76 1010.7
20260507223240 80 52 3.0 6.0 0.00 0.00 0.00 76 1010.7
20260507222737 80 35 2.0 3.0 0.00 0.00 0.00 77 1010.7
20260507222233 79 170 1.0 3.0 0.00 0.00 0.00 78 1010.8
20260507221730 78 141 0.0 3.0 0.00 0.00 0.00 78 1010.8
20260507221226 78 162 1.0 3.0 0.00 0.00 0.00 78 1010.7
20260507220723 78 317 2.0 2.0 0.00 0.00 0.00 77 1010.8
20260507220222 79 18 1.0 3.0 0.00 0.00 0.00 77 1010.8
20260507215717 80 186 3.0 5.0 0.00 0.00 0.00 76 1011.1
20260507215215 80 161 3.0 6.0 0.00 0.00 0.00 76 1011.1
20260507214712 79 176 0.0 5.0 0.00 0.00 0.00 77 1011.2
20260507214209 78 39 1.0 2.0 0.00 0.00 0.00 78 1011.4
20260507213704 78 113 3.0 5.0 0.00 0.00 0.00 78 1010.9
20260507213202 78 113 3.0 5.0 0.00 0.00 0.00 78 1011.2
20260507212657 78 249 2.0 2.0 0.00 0.00 0.00 79 1011.4
20260507212154 78 249 2.0 2.0 0.00 0.00 0.00 79 1011.3
20260507211651 78 78 0.0 2.0 0.00 0.00 0.00 78 1011.1
20260507211147 78 242 1.0 2.0 0.00 0.00 0.00 77 1011.2
20260507210645 78 151 1.0 5.0 0.00 0.00 0.00 77 1011.2
20260507210141 78 82 1.0 2.0 0.00 0.00 0.00 77 1011.4
20260507205638 78 194 0.0 0.0 0.00 0.00 0.00 77 1011.5
20260507205134 78 160 1.0 2.0 0.00 0.00 0.00 77 1011.6
20260507204631 78 100 4.0 5.0 0.00 0.00 0.00 76 1011.6
20260507204128 78 169 0.0 2.0 0.00 0.00 0.00 77 1011.6
20260507203626 78 186 0.0 2.0 0.00 0.00 0.00 77 1011.7
20260507203123 78 222 0.0 2.0 0.00 0.00 0.00 78 1011.8
20260507202619 78 140 1.0 7.0 0.00 0.00 0.00 77 1011.8
20260507202115 78 44 2.0 5.0 0.00 0.00 0.00 78 1012.0
20260507201610 78 187 0.0 3.0 0.00 0.00 0.00 77 1011.9
20260507201108 78 113 2.0 3.0 0.00 0.00 0.00 77 1012.0
20260507200603 78 168 3.0 7.0 0.00 0.00 0.00 76 1012.0
20260507200059 79 204 1.0 5.0 0.00 0.00 0.00 76 1011.8
20260507195557 79 192 0.0 3.0 0.00 0.00 0.00 77 1011.8
20260507195054 78 23 1.0 5.0 0.00 0.00 0.00 77 1012.1
20260507194550 78 85 2.0 3.0 0.00 0.00 0.00 77 1012.1
20260507194046 77 148 2.0 2.0 0.00 0.00 0.00 78 1012.0
20260507193543 77 279 3.0 8.0 0.00 0.00 0.00 79 1012.2
20260507193040 76 77 1.0 5.0 0.00 0.00 0.00 78 1012.3
20260507192536 76 71 3.0 5.0 0.00 0.00 0.00 79 1012.5
20260507192033 75 59 3.0 6.0 0.00 0.00 0.00 79 1012.5
20260507191529 75 12 3.0 6.0 0.00 0.00 0.00 79 1012.7
20260507191026 75 95 4.0 8.0 0.00 0.00 0.00 78 1012.9
20260507190523 75 150 1.0 5.0 0.00 0.00 0.00 80 1012.8
20260507190022 75 23 3.0 7.0 0.00 0.00 0.00 79 1013.1
20260507185520 74 189 1.0 7.0 0.00 0.00 0.00 81 1013.1
20260507185016 73 31 1.0 7.0 0.00 0.00 0.00 81 1013.2
20260507184515 74 191 1.0 5.0 0.00 0.00 0.00 80 1013.2
20260507184012 73 161 1.0 6.0 0.00 0.00 0.00 82 1013.1
20260507183508 73 333 3.0 6.0 0.00 0.00 0.00 81 1013.2
20260507183005 74 313 4.0 6.0 0.00 0.00 0.00 79 1013.2
20260507182501 75 221 0.0 6.0 0.00 0.00 0.00 79 1013.3
20260507181957 74 125 0.0 8.0 0.00 0.00 0.00 81 1013.1
20260507181454 74 38 1.0 5.0 0.00 0.00 0.00 81 1013.3
20260507180950 73 92 1.0 5.0 0.00 0.00 0.00 81 1013.4
20260507180447 73 129 0.0 3.0 0.00 0.00 0.00 80 1013.4
20260507175943 73 50 5.0 7.0 0.00 0.00 0.00 82 1013.3
20260507175440 72 17 2.0 6.0 0.00 0.00 0.00 82 1013.4
20260507174938 72 10 4.0 6.0 0.00 0.00 0.00 83 1013.4
20260507174435 72 100 1.0 2.0 0.00 0.00 0.00 83 1013.6
20260507173932 71 167 1.0 5.0 0.00 0.00 0.00 85 1013.5
20260507173429 70 197 1.0 3.0 0.00 0.00 0.00 85 1013.7
20260507172926 69 199 1.0 2.0 0.00 0.00 0.00 86 1013.8
20260507172422 69 220 0.0 2.0 0.00 0.00 0.00 86 1014.1
20260507171919 69 162 0.0 3.0 0.00 0.00 0.00 86 1014.0
20260507171415 69 175 2.0 3.0 0.00 0.00 0.00 86 1014.1
20260507170913 69 99 1.0 6.0 0.00 0.00 0.00 87 1014.1
20260507170409 69 167 0.0 3.0 0.00 0.00 0.00 86 1013.9
20260507165905 68 188 1.0 5.0 0.00 0.00 0.00 87 1014.1
20260507165401 68 22 1.0 3.0 0.00 0.00 0.00 88 1014.1
20260507164857 68 120 0.0 3.0 0.00 0.00 0.00 88 1014.1
20260507164354 68 84 0.0 6.0 0.00 0.00 0.00 87 1014.2
20260507163851 68 313 4.0 7.0 0.00 0.00 0.00 87 1014.1
20260507163349 68 69 1.0 5.0 0.00 0.00 0.00 87 1014.1
20260507162845 68 305 3.0 3.0 0.00 0.00 0.00 87 1014.1
20260507162340 68 134 0.0 3.0 0.00 0.00 0.00 87 1013.9
20260507161838 69 117 2.0 6.0 0.00 0.00 0.00 87 1013.7
20260507161334 68 71 1.0 6.0 0.00 0.00 0.00 87 1013.7
20260507160831 67 61 1.0 6.0 0.00 0.00 0.00 88 1013.5
20260507160327 67 150 0.0 5.0 0.00 0.00 0.00 89 1013.4
20260507155823 67 68 3.0 5.0 0.00 0.00 0.00 88 1013.6
20260507155319 67 26 2.0 5.0 0.00 0.00 0.00 89 1013.7
20260507154816 67 121 1.0 5.0 0.00 0.00 0.00 89 1013.9
20260507154313 67 126 3.0 6.0 0.00 0.00 0.00 89 1013.7
20260507153810 67 80 1.0 6.0 0.00 0.00 0.00 89 1013.6